Time,TemperatureF,DewpointF,PressureIn,WindDirection,WindDirectionDegrees,WindSpeedMPH,WindSpeedGustMPH,Humidity,HourlyPrecipIn,Conditions,Clouds,dailyrainin,SoftwareType,DateUTC
2013-04-29 00:00:00,53.8,47.8,30.11,SSW,203,4.0,-999.0,80,0.00,,,0.00,Wunderground v.1.15,2013-04-29 04:00:00,
2013-04-29 00:05:00,53.8,47.8,30.11,SSW,203,4.0,-999.0,80,0.00,,,0.00,Wunderground v.1.15,2013-04-29 04:05:00,
2013-04-29 00:10:00,53.8,47.8,30.11,SSW,203,4.0,-999.0,80,0.00,,,0.00,Wunderground v.1.15,2013-04-29 04:10:00,
2013-04-29 00:15:00,53.8,47.8,30.11,SSW,203,4.0,-999.0,80,0.00,,,0.00,Wunderground v.1.15,2013-04-29 04:15:00,
2013-04-29 00:20:00,53.8,47.8,30.11,SSW,203,4.0,-999.0,80,0.00,,,0.00,Wunderground v.1.15,2013-04-29 04:20:00,
2013-04-29 00:25:00,53.8,47.8,30.11,SSW,203,4.0,-999.0,80,0.00,,,0.00,Wunderground v.1.15,2013-04-29 04:25:00,
2013-04-29 00:30:00,53.8,47.8,30.11,SSW,203,4.0,-999.0,80,0.00,,,0.00,Wunderground v.1.15,2013-04-29 04:30:00,
2013-04-29 00:35:00,53.8,47.8,30.11,SSW,203,4.0,-999.0,80,0.00,,,0.00,Wunderground v.1.15,2013-04-29 04:35:00,
2013-04-29 00:40:00,53.8,47.8,30.11,SSW,203,4.0,-999.0,80,0.00,,,0.00,Wunderground v.1.15,2013-04-29 04:40:00,
2013-04-29 00:45:00,53.7,47.7,30.10,SSW,203,3.0,-999.0,80,0.00,,,0.00,Wunderground v.1.15,2013-04-29 04:45:00,
2013-04-29 00:50:00,53.7,47.7,30.10,SSW,203,3.0,-999.0,80,0.00,,,0.00,Wunderground v.1.15,2013-04-29 04:50:00,
2013-04-29 00:55:00,53.7,47.7,30.10,SSW,203,3.0,-999.0,80,0.00,,,0.00,Wunderground v.1.15,2013-04-29 04:55:00,
2013-04-29 01:00:00,53.7,47.7,30.10,SSW,203,3.0,-999.0,80,0.00,,,0.00,Wunderground v.1.15,2013-04-29 05:00:00,
2013-04-29 01:05:00,53.7,47.7,30.10,SSW,203,3.0,-999.0,80,0.00,,,0.00,Wunderground v.1.15,2013-04-29 05:05:00,
2013-04-29 01:10:00,53.7,47.7,30.10,SSW,203,3.0,-999.0,80,0.00,,,0.00,Wunderground v.1.15,2013-04-29 05:10:00,
2013-04-29 01:15:00,53.7,48.0,30.09,SSW,203,4.0,-999.0,81,0.00,,,0.00,Wunderground v.1.15,2013-04-29 05:15:00,
2013-04-29 01:20:00,53.7,48.0,30.09,SSW,203,4.0,-999.0,81,0.00,,,0.00,Wunderground v.1.15,2013-04-29 05:20:00,
2013-04-29 01:25:00,53.7,48.0,30.09,SSW,203,4.0,-999.0,81,0.00,,,0.00,Wunderground v.1.15,2013-04-29 05:25:00,
2013-04-29 01:30:00,53.7,48.0,30.09,SSW,203,4.0,-999.0,81,0.00,,,0.00,Wunderground v.1.15,2013-04-29 05:30:00,
2013-04-29 01:35:00,53.7,48.0,30.09,SSW,203,4.0,-999.0,81,0.00,,,0.00,Wunderground v.1.15,2013-04-29 05:35:00,
2013-04-29 01:40:00,53.7,48.0,30.09,SSW,203,4.0,-999.0,81,0.00,,,0.00,Wunderground v.1.15,2013-04-29 05:40:00,
2013-04-29 01:45:00,53.4,48.0,30.09,SSW,203,3.0,-999.0,82,0.00,,,0.00,Wunderground v.1.15,2013-04-29 05:45:00,
2013-04-29 01:50:00,53.4,48.0,30.09,SSW,203,3.0,-999.0,82,0.00,,,0.00,Wunderground v.1.15,2013-04-29 05:50:00,
2013-04-29 01:55:00,53.4,48.0,30.09,SSW,203,3.0,-999.0,82,0.00,,,0.00,Wunderground v.1.15,2013-04-29 05:55:00,
2013-04-29 02:00:00,53.4,48.0,30.09,SSW,203,3.0,-999.0,82,0.00,,,0.00,Wunderground v.1.15,2013-04-29 06:00:00,
2013-04-29 02:05:00,53.4,48.0,30.09,SSW,203,3.0,-999.0,82,0.00,,,0.00,Wunderground v.1.15,2013-04-29 06:05:00,
2013-04-29 02:10:00,53.4,48.0,30.09,SSW,203,3.0,-999.0,82,0.00,,,0.00,Wunderground v.1.15,2013-04-29 06:10:00,
2013-04-29 02:15:00,53.2,48.2,30.08,SW,225,2.0,-999.0,83,0.00,,,0.00,Wunderground v.1.15,2013-04-29 06:15:00,
2013-04-29 02:20:00,53.2,48.2,30.08,SW,225,2.0,-999.0,83,0.00,,,0.00,Wunderground v.1.15,2013-04-29 06:20:00,
2013-04-29 02:25:00,53.2,48.2,30.08,SW,225,2.0,-999.0,83,0.00,,,0.00,Wunderground v.1.15,2013-04-29 06:25:00,
2013-04-29 02:30:00,53.2,48.2,30.08,SW,225,2.0,-999.0,83,0.00,,,0.00,Wunderground v.1.15,2013-04-29 06:30:00,
2013-04-29 02:35:00,53.2,48.2,30.08,SW,225,2.0,-999.0,83,0.00,,,0.00,Wunderground v.1.15,2013-04-29 06:35:00,
2013-04-29 02:40:00,53.2,48.2,30.08,SW,225,2.0,-999.0,83,0.00,,,0.00,Wunderground v.1.15,2013-04-29 06:40:00,
2013-04-29 02:45:00,52.9,48.2,30.07,WSW,248,2.0,-999.0,84,0.00,,,0.00,Wunderground v.1.15,2013-04-29 06:45:00,
2013-04-29 02:50:00,52.9,48.2,30.07,WSW,248,2.0,-999.0,84,0.00,,,0.00,Wunderground v.1.15,2013-04-29 06:50:00,
2013-04-29 02:55:00,52.9,48.2,30.07,WSW,248,2.0,-999.0,84,0.00,,,0.00,Wunderground v.1.15,2013-04-29 06:55:00,
2013-04-29 03:00:00,52.9,48.2,30.07,WSW,248,2.0,-999.0,84,0.00,,,0.00,Wunderground v.1.15,2013-04-29 07:00:00,
2013-04-29 03:05:00,52.9,48.2,30.07,WSW,248,2.0,-999.0,84,0.00,,,0.00,Wunderground v.1.15,2013-04-29 07:05:00,
2013-04-29 03:10:00,52.9,48.2,30.07,WSW,248,2.0,-999.0,84,0.00,,,0.00,Wunderground v.1.15,2013-04-29 07:10:00,
2013-04-29 03:15:00,52.9,48.5,30.06,SW,225,3.0,-999.0,85,0.00,,,0.00,Wunderground v.1.15,2013-04-29 07:15:00,
2013-04-29 03:20:00,52.9,48.5,30.06,SW,225,3.0,-999.0,85,0.00,,,0.00,Wunderground v.1.15,2013-04-29 07:20:00,
2013-04-29 03:25:00,52.9,48.5,30.06,SW,225,3.0,-999.0,85,0.00,,,0.00,Wunderground v.1.15,2013-04-29 07:25:00,
2013-04-29 03:30:00,52.9,48.5,30.06,SW,225,3.0,-999.0,85,0.00,,,0.00,Wunderground v.1.15,2013-04-29 07:30:00,
2013-04-29 03:35:00,52.9,48.5,30.06,SW,225,3.0,-999.0,85,0.00,,,0.00,Wunderground v.1.15,2013-04-29 07:35:00,
2013-04-29 03:40:00,52.9,48.5,30.06,SW,225,3.0,-999.0,85,0.00,,,0.00,Wunderground v.1.15,2013-04-29 07:40:00,
2013-04-29 03:45:00,52.4,48.3,30.05,SSW,203,2.0,-999.0,86,0.00,,,0.00,Wunderground v.1.15,2013-04-29 07:45:00,
2013-04-29 03:50:00,52.4,48.3,30.05,SSW,203,2.0,-999.0,86,0.00,,,0.00,Wunderground v.1.15,2013-04-29 07:50:00,
2013-04-29 03:55:00,52.4,48.3,30.05,SSW,203,2.0,-999.0,86,0.00,,,0.00,Wunderground v.1.15,2013-04-29 07:55:00,
2013-04-29 04:00:00,52.4,48.3,30.05,SSW,203,2.0,-999.0,86,0.00,,,0.00,Wunderground v.1.15,2013-04-29 08:00:00,
2013-04-29 04:05:00,52.4,48.3,30.05,SSW,203,2.0,-999.0,86,0.00,,,0.00,Wunderground v.1.15,2013-04-29 08:05:00,
2013-04-29 04:10:00,52.4,48.3,30.05,SSW,203,2.0,-999.0,86,0.00,,,0.00,Wunderground v.1.15,2013-04-29 08:10:00,
2013-04-29 04:15:00,52.1,48.3,30.05,SSW,203,2.0,-999.0,87,0.00,,,0.00,Wunderground v.1.15,2013-04-29 08:15:00,
2013-04-29 04:20:00,52.1,48.3,30.05,SSW,203,2.0,-999.0,87,0.00,,,0.00,Wunderground v.1.15,2013-04-29 08:20:00,
2013-04-29 04:25:00,52.1,48.3,30.05,SSW,203,2.0,-999.0,87,0.00,,,0.00,Wunderground v.1.15,2013-04-29 08:25:00,
2013-04-29 04:30:00,52.1,48.3,30.05,SSW,203,2.0,-999.0,87,0.00,,,0.00,Wunderground v.1.15,2013-04-29 08:30:00,
2013-04-29 04:35:00,52.1,48.3,30.05,SSW,203,2.0,-999.0,87,0.00,,,0.00,Wunderground v.1.15,2013-04-29 08:35:00,
2013-04-29 04:40:00,52.1,48.3,30.05,SSW,203,2.0,-999.0,87,0.00,,,0.00,Wunderground v.1.15,2013-04-29 08:40:00,
2013-04-29 04:45:00,52.2,48.4,30.05,WSW,248,1.0,-999.0,87,0.00,,,0.00,Wunderground v.1.15,2013-04-29 08:45:00,
2013-04-29 04:50:00,52.2,48.4,30.05,WSW,248,1.0,-999.0,87,0.00,,,0.00,Wunderground v.1.15,2013-04-29 08:50:00,
2013-04-29 04:55:00,52.2,48.4,30.05,WSW,248,1.0,-999.0,87,0.00,,,0.00,Wunderground v.1.15,2013-04-29 08:55:00,
2013-04-29 05:00:00,52.2,48.4,30.05,WSW,248,1.0,-999.0,87,0.00,,,0.00,Wunderground v.1.15,2013-04-29 09:00:00,
2013-04-29 05:05:00,52.2,48.4,30.05,WSW,248,1.0,-999.0,87,0.00,,,0.00,Wunderground v.1.15,2013-04-29 09:05:00,
2013-04-29 05:10:00,52.2,48.4,30.05,WSW,248,1.0,-999.0,87,0.00,,,0.00,Wunderground v.1.15,2013-04-29 09:10:00,
2013-04-29 05:15:00,52.0,48.3,30.05,SE,135,0.0,-999.0,87,0.00,,,0.00,Wunderground v.1.15,2013-04-29 09:15:00,
2013-04-29 05:20:00,52.0,48.3,30.05,SE,135,0.0,-999.0,87,0.00,,,0.00,Wunderground v.1.15,2013-04-29 09:20:00,
2013-04-29 05:25:00,52.0,48.3,30.05,SE,135,0.0,-999.0,87,0.00,,,0.00,Wunderground v.1.15,2013-04-29 09:25:00,
2013-04-29 05:30:00,52.0,48.3,30.05,SE,135,0.0,-999.0,87,0.00,,,0.00,Wunderground v.1.15,2013-04-29 09:30:00,
2013-04-29 05:35:00,52.0,48.3,30.05,SE,135,0.0,-999.0,87,0.00,,,0.00,Wunderground v.1.15,2013-04-29 09:35:00,
2013-04-29 05:40:00,52.0,48.3,30.05,SE,135,0.0,-999.0,87,0.00,,,0.00,Wunderground v.1.15,2013-04-29 09:40:00,
2013-04-29 05:45:00,51.9,48.5,30.05,SSW,203,1.0,-999.0,88,0.00,,,0.00,Wunderground v.1.15,2013-04-29 09:45:00,
2013-04-29 05:50:00,51.9,48.5,30.05,SSW,203,1.0,-999.0,88,0.00,,,0.00,Wunderground v.1.15,2013-04-29 09:50:00,
2013-04-29 05:55:00,51.9,48.5,30.05,SSW,203,1.0,-999.0,88,0.00,,,0.00,Wunderground v.1.15,2013-04-29 09:55:00,
2013-04-29 06:00:00,51.9,48.5,30.05,SSW,203,1.0,-999.0,88,0.00,,,0.00,Wunderground v.1.15,2013-04-29 10:00:00,
2013-04-29 06:05:00,51.9,48.5,30.05,SSW,203,1.0,-999.0,88,0.00,,,0.00,Wunderground v.1.15,2013-04-29 10:05:00,
2013-04-29 06:10:00,51.9,48.5,30.05,SSW,203,1.0,-999.0,88,0.00,,,0.00,Wunderground v.1.15,2013-04-29 10:10:00,
2013-04-29 06:15:00,51.5,48.7,30.05,ENE,68,2.0,-999.0,90,0.00,,,0.00,Wunderground v.1.15,2013-04-29 10:15:00,
2013-04-29 06:20:00,51.5,48.7,30.05,ENE,68,2.0,-999.0,90,0.00,,,0.00,Wunderground v.1.15,2013-04-29 10:20:00,
2013-04-29 06:25:00,51.5,48.7,30.05,ENE,68,2.0,-999.0,90,0.00,,,0.00,Wunderground v.1.15,2013-04-29 10:25:00,
2013-04-29 06:30:00,51.5,48.7,30.05,ENE,68,2.0,-999.0,90,0.00,,,0.00,Wunderground v.1.15,2013-04-29 10:30:00,
2013-04-29 06:35:00,51.5,48.7,30.05,ENE,68,2.0,-999.0,90,0.00,,,0.00,Wunderground v.1.15,2013-04-29 10:35:00,
2013-04-29 06:40:00,51.5,48.7,30.05,ENE,68,2.0,-999.0,90,0.00,,,0.00,Wunderground v.1.15,2013-04-29 10:40:00,
2013-04-29 06:45:00,51.3,48.8,30.05,ENE,68,0.0,-999.0,91,0.00,,,0.00,Wunderground v.1.15,2013-04-29 10:45:00,
2013-04-29 06:50:00,51.3,48.8,30.05,ENE,68,0.0,-999.0,91,0.00,,,0.00,Wunderground v.1.15,2013-04-29 10:50:00,
2013-04-29 06:55:00,51.3,48.8,30.05,ENE,68,0.0,-999.0,91,0.00,,,0.00,Wunderground v.1.15,2013-04-29 10:55:00,
2013-04-29 07:00:00,51.3,48.8,30.05,ENE,68,0.0,-999.0,91,0.00,,,0.00,Wunderground v.1.15,2013-04-29 11:00:00,
2013-04-29 07:05:00,51.3,48.8,30.05,ENE,68,0.0,-999.0,91,0.00,,,0.00,Wunderground v.1.15,2013-04-29 11:05:00,
2013-04-29 07:10:00,51.3,48.8,30.05,ENE,68,0.0,-999.0,91,0.00,,,0.00,Wunderground v.1.15,2013-04-29 11:10:00,
2013-04-29 07:15:00,51.7,49.7,30.06,East,90,0.0,-999.0,93,0.00,,,0.00,Wunderground v.1.15,2013-04-29 11:15:00,
2013-04-29 07:20:00,51.7,49.7,30.06,East,90,0.0,-999.0,93,0.00,,,0.00,Wunderground v.1.15,2013-04-29 11:20:00,
2013-04-29 07:25:00,51.7,49.7,30.06,East,90,0.0,-999.0,93,0.00,,,0.00,Wunderground v.1.15,2013-04-29 11:25:00,
2013-04-29 07:30:00,51.7,49.7,30.06,East,90,0.0,-999.0,93,0.00,,,0.00,Wunderground v.1.15,2013-04-29 11:30:00,
2013-04-29 08:06:00,51.8,49.5,30.07,North,8,1.0,2.0,92,0.00,,,0.00,Wunderground v.1.15,2013-04-29 12:06:00,
2013-04-29 08:12:00,51.9,49.6,30.07,NNE,15,2.0,2.0,92,0.00,,,0.00,Wunderground v.1.15,2013-04-29 12:12:00,
2013-04-29 08:14:00,51.9,49.6,30.07,NNE,15,2.0,2.0,92,0.00,,,0.00,Wunderground v.1.15,2013-04-29 12:14:00,
2013-04-29 08:16:00,52.0,49.7,30.07,NNE,18,2.0,3.0,92,0.00,,,0.00,Wunderground v.1.15,2013-04-29 12:16:00,
2013-04-29 08:18:00,51.9,49.6,30.07,NNE,21,2.0,3.0,92,0.00,,,0.00,Wunderground v.1.15,2013-04-29 12:18:00,
2013-04-29 08:22:00,52.0,49.7,30.07,NNE,29,2.0,2.0,92,0.00,,,0.00,Wunderground v.1.15,2013-04-29 12:22:00,
2013-04-29 08:24:00,52.0,49.7,30.07,ENE,68,2.0,3.0,92,0.00,,,0.00,Wunderground v.1.15,2013-04-29 12:24:00,
2013-04-29 08:28:00,52.1,49.8,30.07,ENE,77,2.0,3.0,92,0.00,,,0.00,Wunderground v.1.15,2013-04-29 12:28:00,
2013-04-29 08:30:00,52.1,49.8,30.07,East,81,2.0,2.0,92,0.00,,,0.00,Wunderground v.1.15,2013-04-29 12:30:00,
2013-04-29 08:35:00,52.0,49.7,30.07,ENE,72,3.0,5.0,92,0.00,,,0.00,Wunderground v.1.15,2013-04-29 12:35:00,
2013-04-29 08:38:00,52.0,49.5,30.07,ENE,75,3.0,5.0,91,0.00,,,0.00,Wunderground v.1.15,2013-04-29 12:38:00,
2013-04-29 08:40:00,52.1,49.6,30.07,ENE,75,3.0,3.0,91,0.00,,,0.00,Wunderground v.1.15,2013-04-29 12:40:00,
2013-04-29 08:42:00,52.1,49.6,30.07,ENE,67,3.0,3.0,91,0.00,,,0.00,Wunderground v.1.15,2013-04-29 12:42:00,
2013-04-29 08:46:00,52.2,49.7,30.07,ENE,65,2.0,3.0,91,0.00,,,0.00,Wunderground v.1.15,2013-04-29 12:46:00,
2013-04-29 08:48:00,52.2,49.4,30.07,East,93,2.0,3.0,90,0.00,,,0.00,Wunderground v.1.15,2013-04-29 12:48:00,
2013-04-29 08:50:00,52.2,49.4,30.07,East,100,2.0,2.0,90,0.00,,,0.00,Wunderground v.1.15,2013-04-29 12:50:00,
2013-04-29 08:52:00,52.2,49.4,30.07,East,79,1.0,2.0,90,0.00,,,0.00,Wunderground v.1.15,2013-04-29 12:52:00,
2013-04-29 08:56:00,52.3,49.5,30.07,East,91,1.0,2.0,90,0.00,,,0.00,Wunderground v.1.15,2013-04-29 12:56:00,
2013-04-29 08:58:00,52.4,49.6,30.07,East,90,1.0,2.0,90,0.00,,,0.00,Wunderground v.1.15,2013-04-29 12:58:00,
2013-04-29 09:00:00,52.4,49.6,30.07,East,91,1.0,1.0,90,0.00,,,0.01,Wunderground v.1.15,2013-04-29 13:00:00,
2013-04-29 09:02:00,52.4,49.6,30.07,East,91,1.0,1.0,90,0.00,,,0.01,Wunderground v.1.15,2013-04-29 13:02:00,
2013-04-29 09:06:00,52.6,50.0,30.07,East,91,0.0,1.0,91,0.00,,,0.01,Wunderground v.1.15,2013-04-29 13:06:00,
2013-04-29 09:10:00,52.6,49.8,30.07,East,91,0.0,0.0,90,0.05,,,0.02,Wunderground v.1.15,2013-04-29 13:10:00,
2013-04-29 09:12:00,52.6,49.8,30.07,ENE,77,0.0,1.0,90,0.05,,,0.02,Wunderground v.1.15,2013-04-29 13:12:00,
2013-04-29 09:14:00,52.6,49.8,30.07,East,84,0.0,1.0,90,0.05,,,0.02,Wunderground v.1.15,2013-04-29 13:14:00,
2013-04-29 09:18:00,52.7,49.8,30.07,East,84,0.0,1.0,90,0.09,,,0.03,Wunderground v.1.15,2013-04-29 13:18:00,
2013-04-29 09:22:00,52.9,50.3,30.07,East,85,0.0,0.0,91,0.09,,,0.03,Wunderground v.1.15,2013-04-29 13:22:00,
2013-04-29 09:24:00,53.1,50.5,30.07,East,84,0.0,0.0,91,0.07,,,0.03,Wunderground v.1.15,2013-04-29 13:24:00,
2013-04-29 09:26:00,53.2,50.6,30.07,East,84,0.0,0.0,91,0.07,,,0.04,Wunderground v.1.15,2013-04-29 13:26:00,
2013-04-29 09:28:00,53.3,50.7,30.07,NW,311,0.0,0.0,91,0.07,,,0.04,Wunderground v.1.15,2013-04-29 13:28:00,
2013-04-29 09:30:00,53.3,50.4,30.07,WNW,302,0.0,0.0,90,0.07,,,0.04,Wunderground v.1.15,2013-04-29 13:30:00,
2013-04-29 09:32:00,53.2,50.6,30.07,West,280,0.0,0.0,91,0.07,,,0.04,Wunderground v.1.15,2013-04-29 13:32:00,
2013-04-29 09:34:00,53.2,50.3,30.07,West,262,0.0,2.0,90,0.06,,,0.04,Wunderground v.1.15,2013-04-29 13:34:00,
2013-04-29 09:40:00,53.0,50.4,30.07,West,264,0.0,0.0,91,0.04,,,0.04,Wunderground v.1.15,2013-04-29 13:40:00,
2013-04-29 09:44:00,53.0,50.4,30.07,West,264,0.0,0.0,91,0.00,,,0.04,Wunderground v.1.15,2013-04-29 13:44:00,
2013-04-29 09:46:00,53.0,50.4,30.07,West,264,0.0,0.0,91,0.00,,,0.04,Wunderground v.1.15,2013-04-29 13:46:00,
2013-04-29 09:48:00,53.0,50.4,30.07,West,264,0.0,0.0,91,0.00,,,0.04,Wunderground v.1.15,2013-04-29 13:48:00,
2013-04-29 09:52:00,53.2,50.6,30.07,West,264,0.0,0.0,91,0.00,,,0.04,Wunderground v.1.15,2013-04-29 13:52:00,
2013-04-29 09:54:00,53.2,50.6,30.07,West,264,0.0,0.0,91,0.00,,,0.04,Wunderground v.1.15,2013-04-29 13:54:00,
2013-04-29 09:58:00,53.3,50.7,30.06,West,264,0.0,0.0,91,0.00,,,0.04,Wunderground v.1.15,2013-04-29 13:58:00,
2013-04-29 10:00:00,53.4,50.8,30.06,West,264,0.0,0.0,91,0.00,,,0.04,Wunderground v.1.15,2013-04-29 14:00:00,
2013-04-29 10:06:00,53.7,50.8,30.06,West,264,0.0,0.0,90,0.00,,,0.05,Wunderground v.1.15,2013-04-29 14:06:00,
2013-04-29 10:10:00,53.9,51.3,30.06,NW,319,0.0,0.0,91,0.00,,,0.05,Wunderground v.1.15,2013-04-29 14:10:00,
2013-04-29 10:12:00,54.0,51.4,30.06,NW,318,0.0,2.0,91,0.00,,,0.05,Wunderground v.1.15,2013-04-29 14:12:00,
2013-04-29 10:14:00,54.0,51.1,30.06,NW,325,0.0,2.0,90,0.00,,,0.05,Wunderground v.1.15,2013-04-29 14:14:00,
2013-04-29 10:16:00,54.0,51.1,30.06,NW,325,0.0,2.0,90,0.00,,,0.05,Wunderground v.1.15,2013-04-29 14:16:00,
2013-04-29 10:18:00,54.1,51.2,30.06,NNW,335,0.0,2.0,90,0.00,,,0.05,Wunderground v.1.15,2013-04-29 14:18:00,
2013-04-29 10:22:00,54.2,51.3,30.06,NW,312,0.0,1.0,90,0.00,,,0.05,Wunderground v.1.15,2013-04-29 14:22:00,
2013-04-29 10:24:00,54.5,51.9,30.06,NNE,25,0.0,1.0,91,0.00,,,0.05,Wunderground v.1.15,2013-04-29 14:24:00,
2013-04-29 10:28:00,54.7,51.5,30.07,NNE,18,1.0,2.0,89,0.00,,,0.05,Wunderground v.1.15,2013-04-29 14:28:00,
2013-04-29 10:30:00,54.7,51.5,30.06,NNE,29,1.0,1.0,89,0.00,,,0.05,Wunderground v.1.15,2013-04-29 14:30:00,
2013-04-29 10:34:00,55.0,51.8,30.06,NE,45,1.0,2.0,89,0.00,,,0.05,Wunderground v.1.15,2013-04-29 14:34:00,
2013-04-29 10:38:00,55.4,52.2,30.06,NE,36,1.0,3.0,89,0.00,,,0.05,Wunderground v.1.15,2013-04-29 14:38:00,
2013-04-29 10:40:00,55.7,52.2,30.06,North,11,1.0,1.0,88,0.00,,,0.05,Wunderground v.1.15,2013-04-29 14:40:00,
2013-04-29 10:44:00,55.8,52.0,30.06,NE,40,1.0,2.0,87,0.00,,,0.05,Wunderground v.1.15,2013-04-29 14:44:00,
2013-04-29 10:46:00,55.7,51.9,30.06,North,352,1.0,2.0,87,0.00,,,0.05,Wunderground v.1.15,2013-04-29 14:46:00,
2013-04-29 10:50:00,55.8,51.7,30.06,West,277,1.0,1.0,86,0.00,,,0.05,Wunderground v.1.15,2013-04-29 14:50:00,
2013-04-29 10:52:00,55.8,51.7,30.06,West,276,1.0,1.0,86,0.00,,,0.05,Wunderground v.1.15,2013-04-29 14:52:00,
2013-04-29 10:54:00,55.9,52.1,30.06,West,277,0.0,1.0,87,0.00,,,0.05,Wunderground v.1.15,2013-04-29 14:54:00,
2013-04-29 10:58:00,56.0,52.2,30.06,East,89,1.0,1.0,87,0.00,,,0.05,Wunderground v.1.15,2013-04-29 14:58:00,
2013-04-29 11:00:00,56.0,52.2,30.06,East,89,1.0,1.0,87,0.00,,,0.05,Wunderground v.1.15,2013-04-29 15:00:00,
2013-04-29 11:04:00,56.0,52.2,30.06,NNE,29,1.0,2.0,87,0.00,,,0.05,Wunderground v.1.15,2013-04-29 15:04:00,
2013-04-29 11:08:00,55.9,52.1,30.06,NNW,334,1.0,2.0,87,0.00,,,0.05,Wunderground v.1.15,2013-04-29 15:08:00,
2013-04-29 11:10:00,55.8,51.7,30.06,North,9,1.0,1.0,86,0.00,,,0.05,Wunderground v.1.15,2013-04-29 15:10:00,
2013-04-29 11:14:00,56.2,52.7,30.06,NE,54,1.0,2.0,88,0.00,,,0.05,Wunderground v.1.15,2013-04-29 15:14:00,
2013-04-29 11:16:00,56.5,53.3,30.06,ENE,65,1.0,2.0,89,0.00,,,0.05,Wunderground v.1.15,2013-04-29 15:16:00,
2013-04-29 11:22:00,57.0,52.9,30.06,NE,35,2.0,3.0,86,0.00,,,0.05,Wunderground v.1.15,2013-04-29 15:22:00,
2013-04-29 11:26:00,57.1,53.0,30.06,NNE,18,2.0,3.0,86,0.00,,,0.05,Wunderground v.1.15,2013-04-29 15:26:00,
2013-04-29 11:32:00,57.2,53.0,30.06,NE,50,2.0,4.0,86,0.00,,,0.05,Wunderground v.1.15,2013-04-29 15:32:00,
2013-04-29 11:38:00,57.3,53.1,30.06,NNE,33,2.0,4.0,86,0.00,,,0.05,Wunderground v.1.15,2013-04-29 15:38:00,
2013-04-29 11:40:00,57.5,53.0,30.06,NNE,29,2.0,4.0,85,0.00,,,0.05,Wunderground v.1.15,2013-04-29 15:40:00,
2013-04-29 11:46:00,57.8,53.3,30.06,WNW,297,2.0,4.0,85,0.00,,,0.05,Wunderground v.1.15,2013-04-29 15:46:00,
2013-04-29 11:48:00,57.7,52.6,30.06,NNW,328,2.0,4.0,83,0.00,,,0.05,Wunderground v.1.15,2013-04-29 15:48:00,
2013-04-29 11:50:00,57.6,52.8,30.06,NW,316,2.0,2.0,84,0.00,,,0.05,Wunderground v.1.15,2013-04-29 15:50:00,
2013-04-29 11:54:00,57.7,53.2,30.06,North,349,2.0,2.0,85,0.00,,,0.05,Wunderground v.1.15,2013-04-29 15:54:00,
2013-04-29 11:56:00,57.9,53.4,30.05,NNW,335,2.0,2.0,85,0.00,,,0.05,Wunderground v.1.15,2013-04-29 15:56:00,
2013-04-29 11:58:00,58.1,53.6,30.06,NW,309,1.0,3.0,85,0.00,,,0.05,Wunderground v.1.15,2013-04-29 15:58:00,
2013-04-29 12:02:00,58.3,53.2,30.06,West,274,1.0,2.0,83,0.00,,,0.05,Wunderground v.1.15,2013-04-29 16:02:00,
2013-04-29 12:04:00,58.4,53.3,30.05,West,274,1.0,2.0,83,0.00,,,0.05,Wunderground v.1.15,2013-04-29 16:04:00,
2013-04-29 12:06:00,58.7,53.9,30.05,NE,43,1.0,5.0,84,0.00,,,0.05,Wunderground v.1.15,2013-04-29 16:06:00,
2013-04-29 12:10:00,58.5,53.4,30.05,NNW,342,2.0,2.0,83,0.00,,,0.05,Wunderground v.1.15,2013-04-29 16:10:00,
2013-04-29 12:12:00,58.7,53.5,30.05,NNE,25,2.0,2.0,83,0.00,,,0.05,Wunderground v.1.15,2013-04-29 16:12:00,
2013-04-29 12:14:00,58.8,53.6,30.05,NNE,29,2.0,3.0,83,0.00,,,0.05,Wunderground v.1.15,2013-04-29 16:14:00,
2013-04-29 12:16:00,59.0,54.2,30.05,NE,40,2.0,3.0,84,0.00,,,0.05,Wunderground v.1.15,2013-04-29 16:16:00,
2013-04-29 12:22:00,59.8,54.0,30.05,NNE,18,2.0,2.0,81,0.00,,,0.05,Wunderground v.1.15,2013-04-29 16:22:00,
2013-04-29 12:24:00,59.8,54.0,30.05,NE,44,2.0,2.0,81,0.00,,,0.05,Wunderground v.1.15,2013-04-29 16:24:00,
2013-04-29 12:26:00,59.9,54.4,30.05,NNE,26,2.0,2.0,82,0.00,,,0.05,Wunderground v.1.15,2013-04-29 16:26:00,
2013-04-29 12:28:00,59.9,54.1,30.05,NNE,22,2.0,4.0,81,0.00,,,0.05,Wunderground v.1.15,2013-04-29 16:28:00,
2013-04-29 12:30:00,59.8,54.0,30.04,NW,310,2.0,2.0,81,0.00,,,0.05,Wunderground v.1.15,2013-04-29 16:30:00,
2013-04-29 12:32:00,59.9,54.7,30.04,ENE,68,2.0,3.0,83,0.00,,,0.05,Wunderground v.1.15,2013-04-29 16:32:00,
2013-04-29 12:34:00,60.0,54.5,30.04,East,84,2.0,3.0,82,0.00,,,0.05,Wunderground v.1.15,2013-04-29 16:34:00,
2013-04-29 12:36:00,60.1,54.2,30.04,East,82,3.0,3.0,81,0.00,,,0.05,Wunderground v.1.15,2013-04-29 16:36:00,
2013-04-29 12:38:00,60.3,55.1,30.04,NE,47,2.0,3.0,83,0.00,,,0.05,Wunderground v.1.15,2013-04-29 16:38:00,
2013-04-29 12:44:00,61.6,55.4,30.04,East,81,2.0,2.0,80,0.00,,,0.05,Wunderground v.1.15,2013-04-29 16:44:00,
2013-04-29 12:46:00,61.7,55.1,30.04,NNE,29,2.0,2.0,79,0.00,,,0.05,Wunderground v.1.15,2013-04-29 16:46:00,
2013-04-29 12:48:00,61.5,54.9,30.03,ENE,61,2.0,4.0,79,0.00,,,0.05,Wunderground v.1.15,2013-04-29 16:48:00,
2013-04-29 12:52:00,61.2,54.6,30.03,NNW,344,2.0,2.0,79,0.00,,,0.05,Wunderground v.1.15,2013-04-29 16:52:00,
2013-04-29 12:54:00,61.4,54.8,30.03,NE,34,2.0,2.0,79,0.00,,,0.05,Wunderground v.1.15,2013-04-29 16:54:00,
2013-04-29 12:56:00,61.5,54.9,30.03,NE,52,2.0,5.0,79,0.00,,,0.05,Wunderground v.1.15,2013-04-29 16:56:00,
2013-04-29 12:58:00,61.5,54.9,30.03,ENE,76,2.0,5.0,79,0.00,,,0.05,Wunderground v.1.15,2013-04-29 16:58:00,
2013-04-29 13:00:00,61.6,55.4,30.03,SE,139,2.0,2.0,80,0.00,,,0.05,Wunderground v.1.15,2013-04-29 17:00:00,
2013-04-29 13:02:00,61.8,55.2,30.03,ENE,78,2.0,2.0,79,0.00,,,0.05,Wunderground v.1.15,2013-04-29 17:02:00,
2013-04-29 13:06:00,62.2,56.0,30.03,NE,35,2.0,3.0,80,0.00,,,0.05,Wunderground v.1.15,2013-04-29 17:06:00,
2013-04-29 13:08:00,62.5,55.9,30.03,SSE,165,2.0,3.0,79,0.00,,,0.05,Wunderground v.1.15,2013-04-29 17:08:00,
2013-04-29 13:10:00,62.9,55.9,30.03,SE,139,1.0,1.0,78,0.00,,,0.05,Wunderground v.1.15,2013-04-29 17:10:00,
2013-04-29 13:12:00,63.3,55.6,30.03,SSW,210,1.0,1.0,76,0.00,,,0.05,Wunderground v.1.15,2013-04-29 17:12:00,
2013-04-29 13:14:00,63.7,56.4,30.03,West,259,1.0,3.0,77,0.00,,,0.05,Wunderground v.1.15,2013-04-29 17:14:00,
2013-04-29 13:16:00,63.8,55.7,30.03,West,276,1.0,4.0,75,0.00,,,0.05,Wunderground v.1.15,2013-04-29 17:16:00,
2013-04-29 13:18:00,63.4,55.3,30.03,West,262,2.0,5.0,75,0.00,,,0.05,Wunderground v.1.15,2013-04-29 17:18:00,
2013-04-29 13:22:00,62.5,54.8,30.03,NNW,328,2.0,2.0,76,0.00,,,0.05,Wunderground v.1.15,2013-04-29 17:22:00,
2013-04-29 13:24:00,62.4,55.1,30.03,NNW,328,2.0,2.0,77,0.00,,,0.05,Wunderground v.1.15,2013-04-29 17:24:00,
2013-04-29 13:26:00,62.3,55.0,30.03,North,1,2.0,2.0,77,0.00,,,0.05,Wunderground v.1.15,2013-04-29 17:26:00,
2013-04-29 13:28:00,62.3,55.4,30.03,West,262,2.0,3.0,78,0.00,,,0.05,Wunderground v.1.15,2013-04-29 17:28:00,
2013-04-29 13:32:00,62.1,55.2,30.03,North,1,2.0,2.0,78,0.00,,,0.05,Wunderground v.1.15,2013-04-29 17:32:00,
2013-04-29 13:34:00,62.2,55.3,30.03,West,270,2.0,2.0,78,0.00,,,0.05,Wunderground v.1.15,2013-04-29 17:34:00,
2013-04-29 13:36:00,62.1,55.2,30.02,WNW,285,2.0,2.0,78,0.00,,,0.05,Wunderground v.1.15,2013-04-29 17:36:00,
2013-04-29 13:40:00,62.0,55.4,30.02,West,273,2.0,2.0,79,0.00,,,0.05,Wunderground v.1.15,2013-04-29 17:40:00,
2013-04-29 13:42:00,61.9,55.3,30.02,West,270,2.0,3.0,79,0.00,,,0.05,Wunderground v.1.15,2013-04-29 17:42:00,
2013-04-29 13:44:00,61.8,54.9,30.02,West,264,2.0,3.0,78,0.00,,,0.05,Wunderground v.1.15,2013-04-29 17:44:00,
2013-04-29 13:48:00,61.8,55.2,30.02,NNW,344,1.0,3.0,79,0.00,,,0.05,Wunderground v.1.15,2013-04-29 17:48:00,
2013-04-29 13:52:00,61.6,54.7,30.02,North,355,1.0,2.0,78,0.00,,,0.05,Wunderground v.1.15,2013-04-29 17:52:00,
2013-04-29 13:54:00,61.6,55.4,30.03,North,356,1.0,2.0,80,0.00,,,0.05,Wunderground v.1.15,2013-04-29 17:54:00,
2013-04-29 13:58:00,61.7,55.1,30.03,North,6,2.0,2.0,79,0.00,,,0.05,Wunderground v.1.15,2013-04-29 17:58:00,
2013-04-29 14:04:00,61.6,55.0,30.02,NW,309,1.0,2.0,79,0.00,,,0.05,Wunderground v.1.15,2013-04-29 18:04:00,
2013-04-29 14:08:00,61.5,54.6,30.02,NE,43,1.0,2.0,78,0.00,,,0.05,Wunderground v.1.15,2013-04-29 18:08:00,
2013-04-29 14:10:00,61.4,54.8,30.02,NE,39,1.0,1.0,79,0.00,,,0.05,Wunderground v.1.15,2013-04-29 18:10:00,
2013-04-29 14:14:00,61.3,55.1,30.02,NE,35,1.0,3.0,80,0.00,,,0.05,Wunderground v.1.15,2013-04-29 18:14:00,
2013-04-29 14:18:00,61.3,55.1,30.02,NW,308,2.0,3.0,80,0.00,,,0.05,Wunderground v.1.15,2013-04-29 18:18:00,
2013-04-29 14:20:00,61.3,54.7,30.02,NW,307,1.0,1.0,79,0.00,,,0.05,Wunderground v.1.15,2013-04-29 18:20:00,
2013-04-29 14:24:00,61.5,54.9,30.02,NW,319,1.0,1.0,79,0.00,,,0.05,Wunderground v.1.15,2013-04-29 18:24:00,
2013-04-29 14:26:00,61.6,55.0,30.02,NNE,22,1.0,3.0,79,0.00,,,0.05,Wunderground v.1.15,2013-04-29 18:26:00,
2013-04-29 14:28:00,61.6,55.4,30.02,NE,56,1.0,7.0,80,0.00,,,0.05,Wunderground v.1.15,2013-04-29 18:28:00,
2013-04-29 14:32:00,61.4,55.5,30.02,NNE,14,3.0,4.0,81,0.00,,,0.05,Wunderground v.1.15,2013-04-29 18:32:00,
2013-04-29 14:34:00,61.4,55.5,30.02,NE,44,3.0,5.0,81,0.00,,,0.05,Wunderground v.1.15,2013-04-29 18:34:00,
2013-04-29 14:38:00,61.2,55.0,30.02,ENE,65,4.0,5.0,80,0.00,,,0.05,Wunderground v.1.15,2013-04-29 18:38:00,
2013-04-29 14:40:00,61.3,55.4,30.02,NNE,27,4.0,5.0,81,0.00,,,0.05,Wunderground v.1.15,2013-04-29 18:40:00,
2013-04-29 14:42:00,61.3,55.1,30.02,NNE,33,4.0,5.0,80,0.00,,,0.05,Wunderground v.1.15,2013-04-29 18:42:00,
2013-04-29 14:46:00,61.3,55.4,30.02,NNE,20,5.0,6.0,81,0.00,,,0.05,Wunderground v.1.15,2013-04-29 18:46:00,
2013-04-29 14:48:00,61.4,55.5,30.02,NNE,24,5.0,6.0,81,0.00,,,0.05,Wunderground v.1.15,2013-04-29 18:48:00,
2013-04-29 14:50:00,61.5,56.0,30.02,NE,54,5.0,5.0,82,0.00,,,0.05,Wunderground v.1.15,2013-04-29 18:50:00,
2013-04-29 14:52:00,61.6,55.0,30.02,ENE,68,5.0,5.0,79,0.00,,,0.05,Wunderground v.1.15,2013-04-29 18:52:00,
2013-04-29 14:56:00,61.6,55.7,30.01,NE,51,4.0,5.0,81,0.00,,,0.05,Wunderground v.1.15,2013-04-29 18:56:00,
2013-04-29 14:58:00,61.7,55.5,30.01,ENE,68,4.0,5.0,80,0.00,,,0.05,Wunderground v.1.15,2013-04-29 18:58:00,
2013-04-29 15:00:00,61.8,55.9,30.01,NE,39,4.0,6.0,81,0.00,,,0.05,Wunderground v.1.15,2013-04-29 19:00:00,
2013-04-29 15:04:00,62.0,55.8,30.01,NE,40,4.0,6.0,80,0.00,,,0.05,Wunderground v.1.15,2013-04-29 19:04:00,
2013-04-29 15:06:00,62.1,55.9,30.01,NNE,20,4.0,6.0,80,0.00,,,0.05,Wunderground v.1.15,2013-04-29 19:06:00,
2013-04-29 15:10:00,62.2,56.0,30.01,NNW,334,4.0,5.0,80,0.00,,,0.05,Wunderground v.1.15,2013-04-29 19:10:00,
2013-04-29 15:12:00,62.4,55.8,30.01,WNW,293,4.0,5.0,79,0.00,,,0.05,Wunderground v.1.15,2013-04-29 19:12:00,
2013-04-29 15:14:00,62.4,55.4,30.01,NW,326,4.0,5.0,78,0.00,,,0.05,Wunderground v.1.15,2013-04-29 19:14:00,
2013-04-29 15:16:00,62.6,55.6,30.01,North,359,4.0,5.0,78,0.00,,,0.05,Wunderground v.1.15,2013-04-29 19:16:00,
2013-04-29 15:20:00,62.8,55.5,30.00,ENE,78,3.0,3.0,77,0.00,,,0.05,Wunderground v.1.15,2013-04-29 19:20:00,
2013-04-29 15:22:00,62.8,56.2,30.00,NNE,16,3.0,6.0,79,0.00,,,0.05,Wunderground v.1.15,2013-04-29 19:22:00,
2013-04-29 15:24:00,62.9,55.6,30.00,NNE,14,3.0,6.0,77,0.00,,,0.05,Wunderground v.1.15,2013-04-29 19:24:00,
2013-04-29 15:26:00,63.1,56.5,30.00,NE,48,3.0,6.0,79,0.00,,,0.05,Wunderground v.1.15,2013-04-29 19:26:00,
2013-04-29 15:28:00,63.3,56.3,30.00,NNW,347,3.0,6.0,78,0.00,,,0.05,Wunderground v.1.15,2013-04-29 19:28:00,
2013-04-29 15:34:00,63.4,56.1,30.00,NNE,13,4.0,5.0,77,0.00,,,0.05,Wunderground v.1.15,2013-04-29 19:34:00,
2013-04-29 15:36:00,63.4,56.1,30.00,NNE,13,3.0,5.0,77,0.00,,,0.05,Wunderground v.1.15,2013-04-29 19:36:00,
2013-04-29 15:42:00,63.5,56.2,30.00,East,90,3.0,3.0,77,0.00,,,0.05,Wunderground v.1.15,2013-04-29 19:42:00,
2013-04-29 15:44:00,63.5,56.2,30.00,NW,308,2.0,3.0,77,0.00,,,0.05,Wunderground v.1.15,2013-04-29 19:44:00,
2013-04-29 15:48:00,63.4,56.1,30.00,West,266,2.0,4.0,77,0.00,,,0.05,Wunderground v.1.15,2013-04-29 19:48:00,
2013-04-29 15:50:00,63.4,56.4,30.00,NNW,343,2.0,4.0,78,0.00,,,0.05,Wunderground v.1.15,2013-04-29 19:50:00,
2013-04-29 15:52:00,63.3,56.0,30.00,North,4,3.0,4.0,77,0.00,,,0.05,Wunderground v.1.15,2013-04-29 19:52:00,
2013-04-29 15:56:00,63.2,55.9,30.00,North,6,3.0,4.0,77,0.00,,,0.05,Wunderground v.1.15,2013-04-29 19:56:00,
2013-04-29 15:58:00,63.1,55.8,30.00,NNW,331,4.0,4.0,77,0.00,,,0.05,Wunderground v.1.15,2013-04-29 19:58:00,
2013-04-29 16:00:00,63.0,56.0,30.00,NNE,20,4.0,4.0,78,0.00,,,0.05,Wunderground v.1.15,2013-04-29 20:00:00,
2013-04-29 16:04:00,63.0,56.4,30.00,NNW,333,3.0,4.0,79,0.00,,,0.05,Wunderground v.1.15,2013-04-29 20:04:00,
2013-04-29 16:06:00,63.0,56.4,30.00,North,7,3.0,4.0,79,0.00,,,0.05,Wunderground v.1.15,2013-04-29 20:06:00,
2013-04-29 16:10:00,62.9,56.6,29.99,NNW,330,3.0,3.0,80,0.00,,,0.05,Wunderground v.1.15,2013-04-29 20:10:00,
2013-04-29 16:12:00,62.8,56.2,30.00,North,354,3.0,3.0,79,0.00,,,0.05,Wunderground v.1.15,2013-04-29 20:12:00,
2013-04-29 16:14:00,62.8,56.2,29.99,NNE,24,3.0,4.0,79,0.00,,,0.05,Wunderground v.1.15,2013-04-29 20:14:00,
2013-04-29 16:16:00,62.7,56.4,29.99,NNE,18,3.0,7.0,80,0.00,,,0.05,Wunderground v.1.15,2013-04-29 20:16:00,
2013-04-29 16:22:00,62.6,56.0,29.99,NE,37,4.0,4.0,79,0.00,,,0.05,Wunderground v.1.15,2013-04-29 20:22:00,
2013-04-29 16:24:00,62.7,56.1,29.99,NNE,14,4.0,4.0,79,0.00,,,0.05,Wunderground v.1.15,2013-04-29 20:24:00,
2013-04-29 16:26:00,62.7,56.1,29.99,NNE,27,4.0,6.0,79,0.00,,,0.05,Wunderground v.1.15,2013-04-29 20:26:00,
2013-04-29 16:28:00,62.6,56.0,29.99,NW,321,4.0,6.0,79,0.00,,,0.05,Wunderground v.1.15,2013-04-29 20:28:00,
2013-04-29 16:30:00,62.6,56.0,29.99,NNE,27,4.0,4.0,79,0.00,,,0.05,Wunderground v.1.15,2013-04-29 20:30:00,
2013-04-29 16:32:00,62.7,56.4,29.99,NE,37,4.0,5.0,80,0.00,,,0.05,Wunderground v.1.15,2013-04-29 20:32:00,
2013-04-29 16:34:00,62.8,56.5,29.99,North,352,4.0,6.0,80,0.00,,,0.05,Wunderground v.1.15,2013-04-29 20:34:00,
2013-04-29 16:38:00,62.8,56.5,29.99,NNE,19,5.0,7.0,80,0.00,,,0.05,Wunderground v.1.15,2013-04-29 20:38:00,
2013-04-29 16:40:00,62.9,56.6,29.99,NE,41,5.0,5.0,80,0.00,,,0.05,Wunderground v.1.15,2013-04-29 20:40:00,
2013-04-29 16:44:00,63.2,56.9,29.99,NNE,15,4.0,5.0,80,0.00,,,0.05,Wunderground v.1.15,2013-04-29 20:44:00,
2013-04-29 16:46:00,63.3,56.7,29.99,NE,49,4.0,5.0,79,0.00,,,0.05,Wunderground v.1.15,2013-04-29 20:46:00,
2013-04-29 16:48:00,63.2,56.6,29.99,NE,44,4.0,5.0,79,0.00,,,0.05,Wunderground v.1.15,2013-04-29 20:48:00,
2013-04-29 16:52:00,63.0,56.4,29.99,NNE,26,5.0,8.0,79,0.00,,,0.05,Wunderground v.1.15,2013-04-29 20:52:00,
2013-04-29 16:54:00,62.9,56.6,29.99,North,356,6.0,8.0,80,0.00,,,0.05,Wunderground v.1.15,2013-04-29 20:54:00,
2013-04-29 17:00:00,62.9,56.3,29.98,NNW,347,6.0,6.0,79,0.00,,,0.05,Wunderground v.1.15,2013-04-29 21:00:00,
2013-04-29 17:04:00,62.9,56.6,29.98,NNW,347,5.0,6.0,80,0.00,,,0.05,Wunderground v.1.15,2013-04-29 21:04:00,
2013-04-29 17:06:00,62.9,56.6,29.98,North,351,5.0,6.0,80,0.00,,,0.05,Wunderground v.1.15,2013-04-29 21:06:00,
2013-04-29 17:08:00,62.9,56.6,29.98,NNW,332,5.0,6.0,80,0.00,,,0.05,Wunderground v.1.15,2013-04-29 21:08:00,
2013-04-29 17:10:00,63.0,56.7,29.98,NNE,27,5.0,5.0,80,0.00,,,0.05,Wunderground v.1.15,2013-04-29 21:10:00,
2013-04-29 17:14:00,63.1,56.8,29.98,NNW,335,5.0,5.0,80,0.00,,,0.05,Wunderground v.1.15,2013-04-29 21:14:00,
2013-04-29 17:16:00,63.3,57.4,29.98,NE,42,4.0,5.0,81,0.00,,,0.05,Wunderground v.1.15,2013-04-29 21:16:00,
2013-04-29 17:18:00,63.3,57.4,29.98,NNE,24,4.0,5.0,81,0.00,,,0.05,Wunderground v.1.15,2013-04-29 21:18:00,
2013-04-29 17:20:00,63.2,56.9,29.98,NW,319,4.0,4.0,80,0.00,,,0.05,Wunderground v.1.15,2013-04-29 21:20:00,
2013-04-29 17:24:00,63.3,57.0,29.98,NNE,29,4.0,4.0,80,0.00,,,0.05,Wunderground v.1.15,2013-04-29 21:24:00,
2013-04-29 17:26:00,63.3,57.0,29.98,North,354,4.0,4.0,80,0.00,,,0.05,Wunderground v.1.15,2013-04-29 21:26:00,
2013-04-29 17:32:00,63.1,56.8,29.98,North,1,5.0,6.0,80,0.00,,,0.05,Wunderground v.1.15,2013-04-29 21:32:00,
2013-04-29 17:34:00,63.0,56.7,29.98,NNW,345,5.0,6.0,80,0.00,,,0.05,Wunderground v.1.15,2013-04-29 21:34:00,
2013-04-29 17:38:00,62.9,56.6,29.98,NNE,20,5.0,7.0,80,0.00,,,0.05,Wunderground v.1.15,2013-04-29 21:38:00,
2013-04-29 17:40:00,62.8,56.5,29.98,North,5,5.0,5.0,80,0.00,,,0.05,Wunderground v.1.15,2013-04-29 21:40:00,
2013-04-29 17:42:00,62.8,56.5,29.98,NNE,23,5.0,5.0,80,0.00,,,0.05,Wunderground v.1.15,2013-04-29 21:42:00,
2013-04-29 17:48:00,62.8,56.9,29.98,NW,314,4.0,5.0,81,0.00,,,0.05,Wunderground v.1.15,2013-04-29 21:48:00,
2013-04-29 17:50:00,62.8,56.5,29.98,NW,317,4.0,5.0,80,0.00,,,0.05,Wunderground v.1.15,2013-04-29 21:50:00,
2013-04-29 17:52:00,62.8,56.9,29.99,NNE,27,4.0,5.0,81,0.00,,,0.05,Wunderground v.1.15,2013-04-29 21:52:00,
2013-04-29 17:56:00,62.8,56.9,29.98,NNW,335,4.0,8.0,81,0.00,,,0.05,Wunderground v.1.15,2013-04-29 21:56:00,
2013-04-29 17:58:00,62.8,56.9,29.98,NNE,20,4.0,8.0,81,0.00,,,0.05,Wunderground v.1.15,2013-04-29 21:58:00,
2013-04-29 18:02:00,62.9,57.0,29.98,NNE,18,5.0,6.0,81,0.00,,,0.05,Wunderground v.1.15,2013-04-29 22:02:00,
2013-04-29 18:06:00,62.9,57.0,29.99,NNE,18,5.0,6.0,81,0.00,,,0.05,Wunderground v.1.15,2013-04-29 22:06:00,
2013-04-29 18:12:00,62.9,56.6,29.99,NNE,33,6.0,7.0,80,0.00,,,0.05,Wunderground v.1.15,2013-04-29 22:12:00,
2013-04-29 18:14:00,62.8,56.9,29.99,NNE,13,5.0,7.0,81,0.00,,,0.05,Wunderground v.1.15,2013-04-29 22:14:00,
2013-04-29 18:16:00,62.8,56.9,29.98,NE,42,5.0,7.0,81,0.00,,,0.05,Wunderground v.1.15,2013-04-29 22:16:00,
2013-04-29 18:22:00,62.6,56.7,29.98,NNE,20,6.0,7.0,81,0.00,,,0.05,Wunderground v.1.15,2013-04-29 22:22:00,
2013-04-29 18:24:00,62.6,56.7,29.99,NE,44,6.0,10.0,81,0.00,,,0.05,Wunderground v.1.15,2013-04-29 22:24:00,
2013-04-29 18:26:00,62.5,56.6,29.99,NNE,24,6.0,10.0,81,0.00,,,0.05,Wunderground v.1.15,2013-04-29 22:26:00,
2013-04-29 18:28:00,62.5,56.6,29.99,NNE,20,6.0,10.0,81,0.00,,,0.05,Wunderground v.1.15,2013-04-29 22:28:00,
2013-04-29 18:30:00,62.5,56.6,29.99,North,3,6.0,8.0,81,0.00,,,0.05,Wunderground v.1.15,2013-04-29 22:30:00,
2013-04-29 18:34:00,62.5,56.6,29.99,NNE,22,7.0,8.0,81,0.00,,,0.05,Wunderground v.1.15,2013-04-29 22:34:00,
2013-04-29 18:36:00,62.5,56.6,29.99,NE,43,6.0,8.0,81,0.00,,,0.05,Wunderground v.1.15,2013-04-29 22:36:00,
2013-04-29 18:38:00,62.6,57.0,29.99,North,11,6.0,10.0,82,0.00,,,0.05,Wunderground v.1.15,2013-04-29 22:38:00,
2013-04-29 18:40:00,62.6,56.7,29.99,NNE,26,6.0,7.0,81,0.00,,,0.05,Wunderground v.1.15,2013-04-29 22:40:00,
2013-04-29 18:44:00,62.6,56.7,29.99,NNE,23,6.0,8.0,81,0.00,,,0.05,Wunderground v.1.15,2013-04-29 22:44:00,
2013-04-29 18:46:00,62.6,56.7,29.99,NNE,26,6.0,8.0,81,0.00,,,0.05,Wunderground v.1.15,2013-04-29 22:46:00,
2013-04-29 18:48:00,62.5,56.6,29.99,NNE,20,6.0,8.0,81,0.00,,,0.05,Wunderground v.1.15,2013-04-29 22:48:00,
2013-04-29 18:50:00,62.5,56.6,29.99,North,356,6.0,7.0,81,0.00,,,0.05,Wunderground v.1.15,2013-04-29 22:50:00,
2013-04-29 18:52:00,62.4,56.5,29.99,NNE,18,6.0,7.0,81,0.00,,,0.05,Wunderground v.1.15,2013-04-29 22:52:00,
2013-04-29 18:54:00,62.4,56.5,29.99,NNE,23,7.0,7.0,81,0.00,,,0.05,Wunderground v.1.15,2013-04-29 22:54:00,
2013-04-29 18:56:00,62.3,56.4,29.99,NNE,20,6.0,8.0,81,0.00,,,0.05,Wunderground v.1.15,2013-04-29 22:56:00,
2013-04-29 18:58:00,62.4,56.5,30.00,NNE,19,7.0,8.0,81,0.00,,,0.05,Wunderground v.1.15,2013-04-29 22:58:00,
2013-04-29 19:02:00,62.5,56.6,30.00,NNW,338,6.0,6.0,81,0.00,,,0.05,Wunderground v.1.15,2013-04-29 23:02:00,
2013-04-29 19:04:00,62.5,56.6,30.00,NNE,23,6.0,6.0,81,0.00,,,0.05,Wunderground v.1.15,2013-04-29 23:04:00,
2013-04-29 19:10:00,62.5,56.6,30.00,North,8,6.0,6.0,81,0.00,,,0.05,Wunderground v.1.15,2013-04-29 23:10:00,
2013-04-29 19:12:00,62.5,56.6,30.00,NNE,15,6.0,6.0,81,0.00,,,0.05,Wunderground v.1.15,2013-04-29 23:12:00,
2013-04-29 19:14:00,62.4,56.5,30.00,NNE,24,6.0,6.0,81,0.00,,,0.05,Wunderground v.1.15,2013-04-29 23:14:00,
2013-04-29 19:18:00,62.4,56.5,30.00,NNE,18,6.0,7.0,81,0.00,,,0.05,Wunderground v.1.15,2013-04-29 23:18:00,
2013-04-29 19:20:00,62.4,56.5,30.00,North,7,6.0,6.0,81,0.00,,,0.05,Wunderground v.1.15,2013-04-29 23:20:00,
2013-04-29 19:24:00,62.3,56.4,30.00,NNE,19,6.0,6.0,81,0.00,,,0.05,Wunderground v.1.15,2013-04-29 23:24:00,
2013-04-29 19:28:00,62.3,56.4,30.00,North,356,5.0,7.0,81,0.00,,,0.05,Wunderground v.1.15,2013-04-29 23:28:00,
2013-04-29 19:30:00,62.2,56.3,30.00,North,354,4.0,4.0,81,0.00,,,0.05,Wunderground v.1.15,2013-04-29 23:30:00,
2013-04-29 19:32:00,62.2,56.3,30.00,NNE,30,4.0,5.0,81,0.00,,,0.05,Wunderground v.1.15,2013-04-29 23:32:00,
2013-04-29 19:34:00,62.2,56.3,30.00,NNE,26,4.0,5.0,81,0.00,,,0.05,Wunderground v.1.15,2013-04-29 23:34:00,
2013-04-29 19:36:00,62.1,56.2,30.00,NNE,32,4.0,5.0,81,0.00,,,0.05,Wunderground v.1.15,2013-04-29 23:36:00,
2013-04-29 19:40:00,62.0,56.4,30.00,NNE,33,4.0,4.0,82,0.00,,,0.05,Wunderground v.1.15,2013-04-29 23:40:00,
2013-04-29 19:42:00,61.9,56.3,30.00,NNE,33,4.0,4.0,82,0.00,,,0.05,Wunderground v.1.15,2013-04-29 23:42:00,
2013-04-29 19:44:00,61.8,56.2,30.00,North,1,4.0,5.0,82,0.00,,,0.05,Wunderground v.1.15,2013-04-29 23:44:00,
2013-04-29 19:48:00,61.7,55.8,30.00,NNE,18,4.0,5.0,81,0.00,,,0.05,Wunderground v.1.15,2013-04-29 23:48:00,
2013-04-29 19:50:00,61.7,56.1,30.01,NNE,33,4.0,4.0,82,0.00,,,0.05,Wunderground v.1.15,2013-04-29 23:50:00,
2013-04-29 19:52:00,61.6,56.0,30.01,NE,36,5.0,5.0,82,0.00,,,0.05,Wunderground v.1.15,2013-04-29 23:52:00,
2013-04-29 19:54:00,61.5,56.0,30.01,NNE,25,4.0,5.0,82,0.00,,,0.05,Wunderground v.1.15,2013-04-29 23:54:00,
2013-04-29 19:58:00,61.3,56.1,30.01,NNE,13,4.0,5.0,83,0.00,,,0.05,Wunderground v.1.15,2013-04-29 23:58:00,
2013-04-29 20:00:00,61.2,56.0,30.01,North,1,3.0,4.0,83,0.00,,,0.05,Wunderground v.1.15,2013-04-30 00:00:00,
2013-04-29 20:02:00,61.1,55.9,30.01,NNE,26,3.0,4.0,83,0.00,,,0.05,Wunderground v.1.15,2013-04-30 00:02:00,
2013-04-29 20:04:00,60.9,56.0,30.01,North,5,3.0,4.0,84,0.00,,,0.05,Wunderground v.1.15,2013-04-30 00:04:00,
2013-04-29 20:06:00,60.8,55.9,30.01,NNE,19,3.0,4.0,84,0.00,,,0.05,Wunderground v.1.15,2013-04-30 00:06:00,
2013-04-29 20:08:00,60.7,55.8,30.02,NNE,12,3.0,4.0,84,0.00,,,0.05,Wunderground v.1.15,2013-04-30 00:08:00,
2013-04-29 20:10:00,60.7,55.8,30.02,North,355,3.0,4.0,84,0.00,,,0.05,Wunderground v.1.15,2013-04-30 00:10:00,
2013-04-29 20:14:00,60.5,55.6,30.02,NNE,13,3.0,4.0,84,0.00,,,0.05,Wunderground v.1.15,2013-04-30 00:14:00,
2013-04-29 20:16:00,60.4,55.5,30.02,NNE,14,3.0,4.0,84,0.00,,,0.05,Wunderground v.1.15,2013-04-30 00:16:00,
2013-04-29 20:18:00,60.4,55.9,30.02,North,6,3.0,4.0,85,0.00,,,0.05,Wunderground v.1.15,2013-04-30 00:18:00,
2013-04-29 20:20:00,60.3,55.8,30.02,NE,36,3.0,3.0,85,0.00,,,0.05,Wunderground v.1.15,2013-04-30 00:20:00,
2013-04-29 20:22:00,60.2,55.7,30.02,NNE,14,3.0,3.0,85,0.00,,,0.05,Wunderground v.1.15,2013-04-30 00:22:00,
2013-04-29 20:26:00,60.1,55.6,30.02,North,9,3.0,7.0,85,0.00,,,0.05,Wunderground v.1.15,2013-04-30 00:26:00,
2013-04-29 20:30:00,60.0,55.5,30.02,NNE,18,3.0,3.0,85,0.00,,,0.05,Wunderground v.1.15,2013-04-30 00:30:00,
2013-04-29 20:36:00,59.8,55.6,30.03,NNE,27,3.0,3.0,86,0.00,,,0.05,Wunderground v.1.15,2013-04-30 00:36:00,
2013-04-29 20:38:00,59.7,55.5,30.03,NE,40,3.0,8.0,86,0.00,,,0.05,Wunderground v.1.15,2013-04-30 00:38:00,
2013-04-29 20:40:00,59.7,55.5,30.03,NNW,343,3.0,3.0,86,0.00,,,0.05,Wunderground v.1.15,2013-04-30 00:40:00,
2013-04-29 20:42:00,59.6,55.4,30.03,NNE,23,4.0,5.0,86,0.00,,,0.05,Wunderground v.1.15,2013-04-30 00:42:00,
2013-04-29 20:44:00,59.5,55.3,30.03,NNE,27,4.0,5.0,86,0.00,,,0.05,Wunderground v.1.15,2013-04-30 00:44:00,
2013-04-29 20:48:00,59.4,55.2,30.03,NNE,27,5.0,5.0,86,0.00,,,0.05,Wunderground v.1.15,2013-04-30 00:48:00,
2013-04-29 20:50:00,59.4,55.2,30.03,North,352,5.0,5.0,86,0.00,,,0.05,Wunderground v.1.15,2013-04-30 00:50:00,
2013-04-29 20:54:00,59.3,55.4,30.03,NNE,18,5.0,5.0,87,0.00,,,0.05,Wunderground v.1.15,2013-04-30 00:54:00,
2013-04-29 20:58:00,59.3,55.4,30.03,NNE,23,5.0,5.0,87,0.00,,,0.05,Wunderground v.1.15,2013-04-30 00:58:00,
2013-04-29 21:00:00,59.2,55.3,30.03,NNE,29,5.0,5.0,87,0.00,,,0.05,Wunderground v.1.15,2013-04-30 01:00:00,
2013-04-29 21:02:00,59.2,55.3,30.03,North,355,5.0,5.0,87,0.00,,,0.05,Wunderground v.1.15,2013-04-30 01:02:00,
2013-04-29 21:04:00,59.2,55.3,30.04,North,360,5.0,6.0,87,0.00,,,0.05,Wunderground v.1.15,2013-04-30 01:04:00,
2013-04-29 21:06:00,59.1,55.2,30.04,NNE,14,4.0,6.0,87,0.00,,,0.05,Wunderground v.1.15,2013-04-30 01:06:00,
2013-04-29 21:08:00,59.1,55.2,30.03,NNE,16,4.0,6.0,87,0.00,,,0.05,Wunderground v.1.15,2013-04-30 01:08:00,
2013-04-29 21:10:00,59.0,55.1,30.04,North,3,3.0,3.0,87,0.00,,,0.05,Wunderground v.1.15,2013-04-30 01:10:00,
2013-04-29 21:12:00,59.0,55.1,30.04,NNW,328,3.0,3.0,87,0.00,,,0.05,Wunderground v.1.15,2013-04-30 01:12:00,
2013-04-29 21:16:00,58.9,55.0,30.04,NW,319,3.0,6.0,87,0.00,,,0.05,Wunderground v.1.15,2013-04-30 01:16:00,
2013-04-29 21:18:00,58.8,55.3,30.04,NNE,16,3.0,6.0,88,0.00,,,0.05,Wunderground v.1.15,2013-04-30 01:18:00,
2013-04-29 21:24:00,58.6,55.1,30.04,North,349,4.0,5.0,88,0.00,,,0.05,Wunderground v.1.15,2013-04-30 01:24:00,
2013-04-29 21:26:00,58.5,55.3,30.05,NNE,33,4.0,5.0,89,0.00,,,0.05,Wunderground v.1.15,2013-04-30 01:26:00,
2013-04-29 21:30:00,58.4,55.2,30.05,North,356,4.0,4.0,89,0.00,,,0.05,Wunderground v.1.15,2013-04-30 01:30:00,
2013-04-29 21:34:00,58.3,55.1,30.05,NNE,23,4.0,4.0,89,0.00,,,0.05,Wunderground v.1.15,2013-04-30 01:34:00,
2013-04-29 21:36:00,58.2,55.0,30.05,NE,36,4.0,4.0,89,0.00,,,0.05,Wunderground v.1.15,2013-04-30 01:36:00,
2013-04-29 21:38:00,58.2,55.0,30.05,NNE,13,4.0,4.0,89,0.00,,,0.05,Wunderground v.1.15,2013-04-30 01:38:00,
2013-04-29 21:40:00,58.1,54.9,30.05,NNE,16,5.0,5.0,89,0.00,,,0.05,Wunderground v.1.15,2013-04-30 01:40:00,
2013-04-29 21:42:00,58.0,54.8,30.05,NW,319,5.0,7.0,89,0.00,,,0.05,Wunderground v.1.15,2013-04-30 01:42:00,
2013-04-29 21:48:00,57.8,54.9,30.05,NE,49,4.0,7.0,90,0.00,,,0.05,Wunderground v.1.15,2013-04-30 01:48:00,
2013-04-29 21:50:00,57.8,54.9,30.05,North,349,4.0,6.0,90,0.00,,,0.05,Wunderground v.1.15,2013-04-30 01:50:00,
2013-04-29 21:52:00,57.7,54.8,30.05,NNE,23,4.0,6.0,90,0.00,,,0.05,Wunderground v.1.15,2013-04-30 01:52:00,
2013-04-29 21:56:00,57.6,54.7,30.05,NNE,13,3.0,6.0,90,0.00,,,0.05,Wunderground v.1.15,2013-04-30 01:56:00,
2013-04-29 21:58:00,57.5,54.6,30.05,NNW,335,3.0,6.0,90,0.00,,,0.05,Wunderground v.1.15,2013-04-30 01:58:00,
2013-04-29 22:00:00,57.5,54.9,30.05,NNW,327,3.0,3.0,91,0.00,,,0.05,Wunderground v.1.15,2013-04-30 02:00:00,
2013-04-29 22:02:00,57.4,54.8,30.05,North,1,3.0,3.0,91,0.00,,,0.05,Wunderground v.1.15,2013-04-30 02:02:00,
2013-04-29 22:06:00,57.3,54.7,30.05,North,11,3.0,4.0,91,0.00,,,0.05,Wunderground v.1.15,2013-04-30 02:06:00,
2013-04-29 22:08:00,57.2,54.6,30.05,NNW,336,3.0,4.0,91,0.00,,,0.05,Wunderground v.1.15,2013-04-30 02:08:00,
2013-04-29 22:12:00,57.1,54.5,30.06,NNE,18,3.0,3.0,91,0.00,,,0.05,Wunderground v.1.15,2013-04-30 02:12:00,
2013-04-29 22:14:00,57.1,54.5,30.06,NNE,25,3.0,3.0,91,0.00,,,0.05,Wunderground v.1.15,2013-04-30 02:14:00,
2013-04-29 22:16:00,57.0,54.4,30.06,North,356,3.0,6.0,91,0.00,,,0.05,Wunderground v.1.15,2013-04-30 02:16:00,
2013-04-29 22:18:00,57.0,54.4,30.06,North,5,3.0,6.0,91,0.00,,,0.05,Wunderground v.1.15,2013-04-30 02:18:00,
2013-04-29 22:22:00,56.9,54.6,30.06,NW,319,4.0,7.0,92,0.00,,,0.05,Wunderground v.1.15,2013-04-30 02:22:00,
2013-04-29 22:24:00,56.9,54.6,30.06,North,8,3.0,7.0,92,0.00,,,0.05,Wunderground v.1.15,2013-04-30 02:24:00,
2013-04-29 22:28:00,56.8,54.5,30.06,North,11,3.0,7.0,92,0.00,,,0.05,Wunderground v.1.15,2013-04-30 02:28:00,
2013-04-29 22:30:00,56.8,54.5,30.06,North,11,3.0,3.0,92,0.00,,,0.05,Wunderground v.1.15,2013-04-30 02:30:00,
2013-04-29 22:34:00,56.7,54.4,30.06,North,360,3.0,4.0,92,0.00,,,0.05,Wunderground v.1.15,2013-04-30 02:34:00,
2013-04-29 22:38:00,56.7,54.4,30.06,North,9,3.0,4.0,92,0.00,,,0.05,Wunderground v.1.15,2013-04-30 02:38:00,
2013-04-29 22:40:00,56.7,54.4,30.06,NNE,27,3.0,4.0,92,0.00,,,0.05,Wunderground v.1.15,2013-04-30 02:40:00,
2013-04-29 22:42:00,56.6,54.3,30.06,NNE,25,4.0,4.0,92,0.00,,,0.05,Wunderground v.1.15,2013-04-30 02:42:00,
2013-04-29 22:46:00,56.6,54.3,30.06,NNW,342,3.0,4.0,92,0.00,,,0.05,Wunderground v.1.15,2013-04-30 02:46:00,
2013-04-29 22:48:00,56.6,54.3,30.06,North,349,3.0,5.0,92,0.00,,,0.05,Wunderground v.1.15,2013-04-30 02:48:00,
2013-04-29 22:50:00,56.5,54.2,30.06,NNE,20,4.0,4.0,92,0.00,,,0.05,Wunderground v.1.15,2013-04-30 02:50:00,
2013-04-29 22:52:00,56.5,54.2,30.06,North,4,4.0,4.0,92,0.00,,,0.05,Wunderground v.1.15,2013-04-30 02:52:00,
2013-04-29 22:54:00,56.5,54.2,30.06,North,8,4.0,6.0,92,0.00,,,0.05,Wunderground v.1.15,2013-04-30 02:54:00,
2013-04-29 22:56:00,56.5,54.2,30.06,North,356,4.0,6.0,92,0.00,,,0.05,Wunderground v.1.15,2013-04-30 02:56:00,
2013-04-29 23:00:00,56.4,54.1,30.06,NNE,27,4.0,6.0,92,0.00,,,0.05,Wunderground v.1.15,2013-04-30 03:00:00,
2013-04-29 23:04:00,56.3,54.0,30.06,NNE,23,4.0,6.0,92,0.00,,,0.05,Wunderground v.1.15,2013-04-30 03:04:00,
2013-04-29 23:06:00,56.3,54.0,30.06,NNE,23,4.0,6.0,92,0.00,,,0.05,Wunderground v.1.15,2013-04-30 03:06:00,
2013-04-29 23:10:00,56.2,53.9,30.06,North,5,5.0,7.0,92,0.00,,,0.05,Wunderground v.1.15,2013-04-30 03:10:00,
2013-04-29 23:16:00,56.1,53.8,30.06,NNE,18,4.0,7.0,92,0.00,,,0.05,Wunderground v.1.15,2013-04-30 03:16:00,
2013-04-29 23:18:00,56.0,53.7,30.06,NNE,30,4.0,7.0,92,0.00,,,0.05,Wunderground v.1.15,2013-04-30 03:18:00,
2013-04-29 23:20:00,55.9,53.6,30.06,North,3,4.0,4.0,92,0.00,,,0.05,Wunderground v.1.15,2013-04-30 03:20:00,
2013-04-29 23:22:00,55.9,53.6,30.06,NNW,342,4.0,5.0,92,0.00,,,0.05,Wunderground v.1.15,2013-04-30 03:22:00,
2013-04-29 23:24:00,55.7,53.4,30.06,NNE,22,4.0,6.0,92,0.00,,,0.05,Wunderground v.1.15,2013-04-30 03:24:00,
2013-04-29 23:28:00,55.7,53.4,30.06,NNW,334,4.0,6.0,92,0.00,,,0.05,Wunderground v.1.15,2013-04-30 03:28:00,
2013-04-29 23:30:00,55.6,53.3,30.06,North,4,4.0,6.0,92,0.00,,,0.05,Wunderground v.1.15,2013-04-30 03:30:00,
2013-04-29 23:34:00,55.5,53.2,30.07,North,7,4.0,6.0,92,0.00,,,0.05,Wunderground v.1.15,2013-04-30 03:34:00,
2013-04-29 23:36:00,55.5,53.2,30.06,NNW,338,4.0,6.0,92,0.00,,,0.05,Wunderground v.1.15,2013-04-30 03:36:00,
2013-04-29 23:38:00,55.4,53.1,30.07,North,356,4.0,6.0,92,0.00,,,0.05,Wunderground v.1.15,2013-04-30 03:38:00,
2013-04-29 23:42:00,55.3,53.0,30.07,NNE,18,4.0,6.0,92,0.00,,,0.05,Wunderground v.1.15,2013-04-30 03:42:00,
2013-04-29 23:44:00,55.3,53.0,30.07,North,5,4.0,7.0,92,0.00,,,0.05,Wunderground v.1.15,2013-04-30 03:44:00,
2013-04-29 23:46:00,55.3,53.0,30.07,NNE,26,5.0,7.0,92,0.00,,,0.05,Wunderground v.1.15,2013-04-30 03:46:00,
2013-04-29 23:50:00,55.2,52.9,30.06,NE,43,5.0,5.0,92,0.00,,,0.05,Wunderground v.1.15,2013-04-30 03:50:00,
2013-04-29 23:52:00,55.2,52.9,30.06,NE,36,5.0,5.0,92,0.00,,,0.05,Wunderground v.1.15,2013-04-30 03:52:00,
2013-04-29 23:56:00,55.1,52.8,30.06,NNE,13,4.0,5.0,92,0.00,,,0.05,Wunderground v.1.15,2013-04-30 03:56:00,
2013-04-29 23:58:00,55.1,52.8,30.06,NNE,15,4.0,5.0,92,0.00,,,0.05,Wunderground v.1.15,2013-04-30 03:58:00,